Location: Winthrop
(48.4780°N, 120.1850°W)
Time: 23:37:48
(UTC-07:00)

S-56A Canister/Altair - Pass Details

Date: 04 June 2023
Orbit: 640 x 2489 km, 38.9° (Epoch: 29 September)

Event Time Altitude Azimuth Distance (km) Brightness Sun altitude
Rises 02:16:43 0° 275° (W) 6,089 12.0 -17.0°
Reaches altitude 10° 02:20:51 10° 270° (W) 5,140 11.5 -16.8°
Maximum altitude 02:34:41 46° 205° (SSW) 2,956 10.0 -15.9°
Drops below altitude 10° 02:46:28 10° 137° (SE) 4,406 11.2 -15.1°
Sets 02:49:44 0° 132° (SE) 5,180 11.6 -14.9°
